RH
57 58 59 59 62 59 64 49 41 28 22 21 17 16 16 12 12 17 16 18 26 30 32 31 57 61 64 51 42 28 28 24 30 32 31 30 27 25 23 22 23 21 30 37 30 28 28 28 58
58 83 79 62 63 49 47 70 53 29 31 31 19 23 25 19 14 21 25 28 47 70 69 79 39 44 46 56 32 29 33 29 27 27 30 33 27 29 25 26 26 23 27 33 33 30 26 24 27
78 98 98 90 77 70 60 78 40 50 56 30 23 52 37 24 26 31 20 37 85 83 83 61 53 43 71 51 35 35 38 36 25 30 32 30 26 27 29 26 30 25 29 29 31 32 27 24 30
90 100 100 100 100 99 94 78 64 66 85 41 45 48 26 28 37 38 28 46 80 95 55 56 47 56 76 28 36 42 43 42 34 31 35 32 25 27 34 32 34 27 30 32 35 34 26 27 35
98 65 99 100 87 77 76 100 100 98 62 69 79 64 46 62 64 42 29 52 100 85 44 53 45 48 53 41 38 48 54 57 40 37 38 30 26 28 35 35 35 28 32 34 36 35 28 28 42
38 70 56 93 100 78 100 100 100 55 50 100 94 87 76 66 54 34 33 62 100 67 53 43 54 42 48 46 45 58 67 58 44 45 38 35 27 29 35 40 42 32 38 36 36 31 37 41 56
64 61 63 71 75 98 100 100 100 100 83 78 92 92 69 57 36 27 56 99 100 79 70 71 63 58 55 62 56 74 73 57 51 42 45 32 34 30 30 36 42 35 42 39 37 33 52 99 60
100 100 100 100 100 100 91 95 100 100 100 92 89 68 64 33 33 32 55 91 100 99 91 83 78 78 73 70 83 83 75 51 46 42 44 29 33 29 31 40 41 32 41 40 41 35 56 100 100
98 100 100 100 91 100 100 100 100 100 100 94 69 58 62 47 36 30 50 71 85 100 91 81 78 84 99 95 89 93 72 50 32 37 30 25 25 25 28 34 37 33 32 37 44 36 41 75 95
98 100 100 98 77 100 100 100 100 100 100 96 80 75 65 50 32 58 84 96 94 92 91 92 87 100 97 98 100 86 42 30 21 25 24 24 19 18 24 28 30 32 27 35 44 42 38 49 73
96 100 100 100 96 100 100 100 100 100 100 91 77 68 65 47 90 100 97 83 91 90 99 100 84 91 100 100 98 64 38 30 25 22 22 23 20 18 20 27 29 26 28 28 48 55 43 54 84
100 98 92 96 97 99 95 99 100 86 76 86 59 50 52 53 63 92 100 98 94 92 99 82 87 100 100 100 95 62 46 40 34 29 28 25 23 22 22 23 30 30 28 30 31 61 53 42 68
100 100 100 100 100 100 100 97 66 99 100 74 53 62 63 52 50 60 100 100 92 87 90 75 91 100 100 100 82 70 59 54 43 35 34 32 28 26 26 25 31 39 30 33 31 29 57 53 55
100 100 100 100 100 100 98 85 93 100 90 98 87 63 52 49 42 41 56 100 100 75 94 100 100 100 100 97 91 86 62 50 46 43 42 38 34 36 35 32 35 44 36 36 41 31 31 51 58
89 100 100 100 100 98 88 98 100 93 95 96 81 65 54 45 34 32 64 88 76 69 99 100 100 100 100 100 100 69 55 54 54 52 46 37 42 39 45 43 45 47 45 37 44 44 39 34 45
61 61 65 77 79 83 85 87 100 100 100 92 76 73 67 69 58 59 58 82 81 100 100 100 100 100 100 100 92 79 68 59 62 61 48 47 44 50 53 73 91 72 62 46 37 41 55 45 51
90 64 63 94 100 100 100 100 100 100 100 100 100 100 100 99 96 100 100 98 100 100 100 100 100 100 100 100 100 99 76 70 69 55 49 47 47 63 68 64 87 100 97 67 43 40 51 64 76
97 100 100 100 100 99 100 95 99 100 100 100 100 100 100 100 100 95 93 100 100 100 100 100 100 100 93 100 97 87 78 72 68 62 58 50 46 63 84 97 100 100 100 98 63 46 56 59 74
100 100 100 100 100 96 100 97 100 100 93 78 81 85 70 85 80 84 76 87 98 92 85 73 66 58 78 88 98 91 87 82 77 63 73 64 73 100 100 100 100 100 100 100 91 76 82 88 72
94 91 95 91 86 79 70 66 72 84 81 76 61 57 58 56 70 83 93 79 73 68 73 65 62 64 89 100 100 91 90 91 87 65 88 84 80 100 100 100 100 100 100 100 100 92 80 82 92
80 74 85 96 99 90 77 72 51 54 51 56 59 59 62 65 68 74 91 78 66 69 74 88 91 100 100 100 100 94 90 100 100 77 92 100 86 88 100 100 100 100 100 100 90 90 86 86 94
62 66 62 72 82 86 75 65 61 42 35 38 51 58 63 72 82 85 79 79 63 62 66 81 99 100 100 99 100 100 100 100 100 89 100 100 100 78 88 100 100 100 100 100 100 99 92 82 75
32 35 44 38 39 46 49 50 49 45 43 37 33 31 40 52 60 68 83 80 74 69 76 75 82 90 100 100 100 100 100 100 100 100 100 100 100 100 90 95 100 100 100 100 100 100 100 96 98
25 33 42 38 37 36 37 39 36 35 34 34 32 30 33 34 41 44 44 47 46 61 64 60 63 62 76 99 100 100 100 100 100 100 100 100 100 100 100 99 96 86 100 100 100 100 100 100 100
35 38 37 37 37 36 35 32 29 23 21 23 25 29 31 34 39 42 42 40 34 34 38 38 40 64 94 100 100 100 100 100 100 80 92 100 99 58 84 61 82 100 100 80 88 82 86 62 63
33 30 27 29 27 26 26 25 24 28 32 32 25 30 32 33 39 36 35 44 57 67 54 45 46 78 69 74 92 92 99 100 100 90 64 76 98 100 91 87 56 46 69 88 97 68 78 90 100
24 27 31 27 25 24 24 22 23 26 26 27 29 26 29 28 36 47 55 61 55 89 100 93 85 60 57 51 55 58 62 62 98 100 100 90 84 98 100 100 100 100 69 62 88 89 100 100 80
28 31 31 32 33 29 29 33 38 39 34 31 35 36 39 47 70 100 100 100 100 98 100 100 100 100 100 100 97 90 64 61 71 77 83 100 100 98 100 100 100 98 99 78 87 99 86 98 89
32 38 38 39 39 43 41 42 47 38 37 41 39 45 47 45 42 45 59 61 80 100 100 100 100 100 100 96 100 100 100 100 100 100 100 100 100 100 100 100 100 100 100 100 100 100 100 100 100
35 36 39 44 45 46 42 41 42 49 49 52 58 60 52 50 50 44 39 45 54 54 57 58 83 89 76 96 100 100 100 100 100 100 100 100 100 100 100 100 100 100 100 100 100 100 97 90 98
Wind_Speed
26 29 32 29 21 15 17 16 19 22 23 26 27 30 25 17 25 27 30 33 35 34 30 31 37 37 38 44 48 52 55 53 49 47 49 46 48 46 47 46 45 39 33 32 31 30 29 27 27
28 31 32 30 26 15 17 20 21 25 23 27 27 25 21 21 25 28 29 30 34 33 30 35 39 41 45 45 50 55 56 55 50 50 48 46 46 47 46 45 43 38 33 31 33 31 29 28 30
28 29 33 35 29 22 19 24 23 20 22 23 22 24 19 26 25 30 29 29 33 33 28 41 41 46 41 52 58 56 59 59 53 50 46 45 44 45 45 45 45 39 33 31 32 33 30 29 27
26 31 32 35 31 30 29 28 28 23 26 23 19 23 23 19 27 32 32 29 28 28 41 42 43 47 43 55 58 60 58 56 54 53 48 45 44 44 42 44 44 38 34 32 32 33 31 27 27
29 32 35 39 37 33 30 30 29 25 29 26 29 27 22 22 30 34 35 30 26 33 44 46 48 45 53 56 58 61 58 53 53 52 49 45 46 45 42 43 43 37 33 32 31 33 32 28 27
33 35 38 40 40 33 28 31 41 41 30 25 24 31 28 26 34 38 40 38 30 43 43 51 51 52 56 57 59 62 54 53 53 53 51 44 45 44 41 41 42 37 32 30 30 30 28 27 27
34 39 41 43 40 38 31 32 42 47 31 26 26 28 27 31 40 42 39 36 40 45 50 52 57 56 59 58 58 59 52 56 52 55 52 46 45 44 41 42 42 38 34 30 29 27 24 24 26
39 44 49 45 41 37 37 35 37 41 42 31 29 33 35 43 47 47 43 41 47 51 56 56 60 61 60 55 57 49 59 60 55 52 49 47 46 46 43 41 42 38 35 31 29 27 26 23 22
41 45 44 42 39 40 37 36 37 41 40 40 43 41 44 47 51 49 48 48 47 54 55 60 62 59 58 57 52 56 60 58 51 47 45 45 47 47 45 43 44 40 37 33 29 28 27 28 25
45 47 50 50 45 45 44 42 42 42 42 48 50 51 51 57 52 52 49 45 49 58 60 63 57 56 57 53 54 59 57 48 44 44 44 44 44 45 48 45 43 45 39 34 29 29 29 29 32
51 53 54 56 54 52 52 49 49 47 51 56 56 58 53 51 52 54 56 53 58 60 63 58 58 59 55 51 57 59 50 44 49 50 46 43 43 43 46 45 43 43 43 35 30 29 31 30 28
54 57 58 60 61 58 59 56 57 59 63 66 65 62 59 52 52 57 59 60 63 63 59 63 65 62 56 59 61 59 53 55 52 53 47 45 43 45 45 45 44 42 43 39 31 31 32 31 34
46 49 51 54 57 60 58 56 61 60 63 68 69 62 55 55 56 56 60 64 63 60 63 65 67 58 62 64 63 59 60 59 54 55 45 46 45 45 46 43 44 44 43 44 38 32 32 34 34
57 54 57 60 62 64 65 62 63 63 67 66 69 67 64 61 61 57 55 62 61 64 66 66 60 66 70 67 62 59 55 56 58 53 46 51 49 48 48 46 44 44 44 45 43 37 33 33 37
62 58 60 64 67 66 66 60 70 70 69 69 71 76 73 71 68 60 57 61 67 68 66 65 71 73 68 66 60 59 57 56 55 54 59 52 47 48 48 47 48 46 46 47 46 42 37 35 35
72 70 67 68 72 72 70 61 66 67 66 72 71 70 70 71 70 65 61 69 66 67 71 78 71 66 66 61 57 56 57 56 55 58 54 53 50 49 51 50 53 51 49 47 49 47 41 38 36
77 75 73 72 78 79 75 69 70 75 76 77 77 77 79 77 74 71 66 66 68 72 74 77 71 68 63 62 62 60 60 57 58 61 57 54 52 52 51 51 53 54 53 47 49 50 49 45 40
83 78 77 79 84 86 84 82 84 86 86 87 87 86 84 83 80 77 73 67 67 71 73 76 78 71 73 69 65 62 61 60 58 58 60 60 55 53 56 55 55 55 51 47 48 51 52 50 48
89 85 79 83 86 84 85 84 83 89 92 94 93 93 91 90 86 78 72 65 67 72 79 82 83 82 80 77 72 68 61 62 62 58 57 54 53 54 54 54 53 53 51 50 49 52 54 54 53
85 88 89 87 89 89 89 89 93 95 96 97 95 94 95 95 86 80 73 70 72 72 80 82 82 80 73 75 70 71 72 66 60 58 56 55 53 56 55 56 55 54 53 50 50 52 53 52 50
91 91 95 95 93 95 92 90 92 99 99 99 96 95 93 91 89 83 81 82 80 79 75 77 76 68 72 73 76 76 69 62 62 57 58 59 56 56 57 59 60 57 53 56 57 55 54 52 53
98 95 95 95 95 96 97 93 93 99 98 98 97 95 94 92 90 89 86 87 84 82 80 74 73 72 76 79 77 74 69 68 65 63 62 62 59 57 60 59 62 58 58 60 60 59 56 53 54
99 102 105 103 101 98 99 103 94 97 104 104 103 103 100 100 97 95 93 90 88 85 81 76 74 74 76 78 78 77 72 72 71 70 65 65 65 64 62 63 62 65 62 62 65 65 62 59 59
105 106 106 104 103 100 103 104 97 101 100 105 107 104 106 105 100 95 95 94 83 76 76 76 74 77 80 79 79 75 75 77 76 76 72 65 65 66 65 65 60 59 63 61 61 64 66 66 68
97 95 97 99 100 92 98 98 97 96 99 96 94 92 94 90 86 84 86 87 83 81 78 73 72 73 74 79 79 76 79 78 76 73 72 70 65 61 60 63 63 71 69 65 67 68 66 69 70
88 85 86 86 88 88 87 89 89 87 84 84 87 82 81 83 77 73 77 72 73 70 73 70 70 70 70 74 77 77 74 80 76 76 69 75 78 75 72 73 69 68 67 76 79 72 73 73 80
88 83 86 89 90 90 87 89 92 90 89 86 85 87 87 85 81 82 76 79 79 78 77 77 81 82 83 82 81 77 78 72 77 79 77 76 80 87 83 85 82 81 84 78 78 80 85 85 85
88 88 88 88 88 89 85 84 87 89 93 90 86 86 85 79 75 74 76 86 85 79 82 83 84 86 87 90 94 93 90 88 86 83 80 82 82 83 90 93 92 91 95 91 82 86 87 89 94
85 86 89 89 86 86 85 84 87 93 94 93 94 89 86 84 82 79 80 80 87 91 95 96 101 102 103 102 98 97 98 97 97 97 93 92 91 94 95 96 100 101 103 100 92 91 98 98 97
86 87 91 94 91 91 93 92 93 93 94 96 94 96 94 92 89 89 85 79 78 80 84 94 104 107 104 105 107 107 109 110 108 107 106 102 103 102 108 107 111 112 112 109 110 114 119 113 115
Wind_Direction
293 293 294 300 306 303 291 300 306 311 314 329 332 332 342 343 328 320 321 323 323 322 320 319 321 324 330 339 337 340 342 342 339 335 332 329 327 323 319 323 324 322 313 298 293 287 279 276 268
291 291 292 296 298 285 288 286 292 305 324 327 323 326 338 344 334 323 320 316 316 317 312 323 328 330 330 332 337 338 339 339 337 336 333 328 326 321 320 321 323 321 313 301 294 288 285 278 267
293 292 287 286 291 274 290 278 289 294 320 319 317 323 327 332 327 322 327 320 315 316 319 322 328 330 327 332 332 335 335 335 334 334 334 328 325 320 319 324 326 322 313 303 291 287 282 276 269
285 287 274 276 280 277 281 287 290 281 308 307 312 315 315 327 325 320 322 314 317 311 319 322 327 326 324 328 328 329 331 333 332 333 332 326 324 320 319 321 323 322 316 306 295 288 283 277 268
282 282 278 278 283 282 292 286 285 287 299 297 300 307 316 329 321 314 317 310 306 312 323 321 323 321 319 320 323 326 328 332 329 328 329 324 322 318 320 321 321 322 317 308 296 289 285 277 265
278 279 281 278 284 294 288 286 290 288 288 306 297 305 312 316 314 314 310 305 298 314 322 321 319 317 317 318 318 322 326 327 327 325 325 322 320 319 318 321 320 319 316 309 297 291 287 281 258
279 279 279 278 283 288 284 284 283 283 289 285 292 295 304 301 309 313 301 294 297 307 313 316 316 313 312 313 314 319 322 328 325 326 321 321 320 318 319 318 318 318 315 308 296 289 281 291 266
277 286 282 283 283 281 279 275 274 284 287 280 280 286 291 305 315 312 301 289 296 307 309 307 310 310 311 310 313 317 321 325 325 325 320 318 317 316 316 317 316 318 312 307 295 286 275 283 275
269 276 272 273 272 276 279 278 275 279 282 280 280 288 294 303 308 309 303 293 294 302 304 304 305 307 307 309 309 314 319 320 322 321 316 313 313 314 312 315 315 317 311 306 295 285 277 269 269
269 272 274 275 267 269 271 270 275 280 279 279 285 292 296 301 303 305 299 294 293 299 301 304 305 305 303 306 310 313 317 317 319 318 311 307 307 310 308 310 312 312 314 305 297 283 277 275 265
269 271 275 276 274 271 276 274 274 280 283 280 285 292 297 302 303 298 296 299 299 298 301 301 299 300 298 304 311 319 315 313 314 316 308 302 301 304 303 306 310 308 311 308 296 285 277 271 268
275 274 274 274 277 275 271 274 280 281 278 282 283 287 295 298 297 295 293 295 296 296 295 297 297 294 291 303 309 312 312 311 311 312 304 299 296 298 296 301 306 305 307 309 297 285 277 271 266
273 273 269 269 273 274 274 275 275 279 277 280 282 286 289 292 291 289 290 290 293 297 295 294 292 289 298 305 306 308 307 306 306 308 302 302 291 293 289 294 299 302 300 303 302 291 280 271 269
272 271 273 269 268 269 273 278 281 278 281 284 287 284 285 286 289 289 289 288 292 295 293 292 286 291 298 300 301 302 303 303 305 302 298 305 301 286 287 285 294 298 297 298 300 291 282 273 268
268 271 274 274 275 274 273 279 279 279 283 284 284 286 286 288 289 284 283 285 288 292 286 283 288 292 295 298 294 299 300 300 301 297 302 306 291 289 284 284 280 289 295 293 293 292 285 280 272
269 270 269 273 276 277 277 277 282 281 281 283 284 284 286 285 285 280 277 284 287 284 281 285 290 291 293 292 291 295 298 298 297 299 300 300 295 286 284 280 280 279 284 290 286 287 286 282 282
269 271 274 275 275 277 278 274 269 271 274 275 277 279 280 284 288 289 284 286 282 281 286 288 288 292 290 287 289 290 295 296 294 295 296 298 295 282 282 280 280 281 277 283 283 280 283 284 281
269 269 267 267 271 273 276 275 276 276 275 278 280 282 284 288 290 290 291 287 283 285 286 287 288 289 290 287 287 290 294 293 293 294 297 299 295 280 280 281 280 279 273 278 280 275 278 280 283
268 268 269 275 275 277 282 279 280 278 278 278 278 278 280 285 288 288 289 283 283 284 285 286 288 291 292 289 288 289 290 289 292 293 286 289 277 274 278 277 278 274 270 275 275 274 272 273 272
273 273 272 272 275 277 277 280 280 280 280 280 281 281 282 283 286 286 285 282 284 285 286 289 292 293 286 286 285 286 292 289 289 290 281 279 274 274 277 276 274 273 273 270 279 278 274 271 269
275 274 274 273 275 276 277 278 280 279 279 280 281 282 282 282 282 280 281 283 285 287 286 288 290 287 283 281 282 286 288 280 284 285 277 270 270 271 278 278 276 276 273 277 280 278 272 273 270
274 275 275 274 275 276 279 276 275 278 280 283 283 283 283 284 284 282 280 279 280 281 282 280 279 278 277 278 279 281 278 276 279 281 277 273 269 270 272 275 273 273 275 277 280 279 277 275 277
279 279 277 275 276 279 281 278 278 280 281 280 280 280 279 280 283 282 282 282 283 282 281 280 274 273 271 272 273 275 277 274 274 276 277 274 270 271 274 271 270 271 274 279 277 278 275 276 279
279 277 278 278 278 280 280 279 281 281 281 279 280 279 280 280 282 280 280 279 280 277 273 272 269 269 271 271 268 272 273 272 272 276 277 273 275 270 271 273 268 272 274 272 276 279 277 277 281
275 275 276 278 279 278 280 281 283 283 281 279 278 278 279 279 278 277 277 277 278 275 274 275 273 270 268 268 266 269 273 273 271 277 272 268 270 269 268 270 268 264 267 270 273 275 275 278 281
274 275 277 275 275 275 276 278 280 280 279 279 281 280 280 279 277 277 280 279 280 281 279 280 279 275 273 269 266 267 268 268 271 273 274 267 264 266 265 270 273 271 269 267 269 273 277 275 276
273 276 276 277 278 277 276 277 279 279 278 279 282 284 285 283 282 284 288 288 289 289 287 286 287 287 283 278 277 276 274 271 267 272 272 274 273 268 266 265 267 274 279 276 271 271 272 273 274
274 275 278 279 279 281 282 280 283 284 284 284 282 281 282 283 282 280 276 279 276 276 277 276 276 279 280 282 282 282 281 280 277 273 273 270 268 267 267 269 265 269 273 280 275 273 274 272 275
273 278 279 279 280 283 284 284 285 284 286 288 288 287 285 283 281 275 273 274 273 274 275 273 270 273 276 275 270 270 271 273 274 274 271 271 267 269 264 264 264 267 267 272 275 270 275 273 272
273 275 278 280 281 282 282 283 284 287 289 289 288 286 286 286 284 281 281 282 281 279 278 275 274 273 274 271 270 270 270 271 271 270 268 268 264 266 264 265 265 264 267 268 273 273 275 276 276